Time,TemperatureF,DewpointF,PressureIn,WindDirection,WindDirectionDegrees,WindSpeedMPH,WindSpeedGustMPH,Humidity,HourlyPrecipIn,Conditions,Clouds,dailyrainin,SoftwareType,DateUTC
2013-04-09 00:03:00,35.0,29.0,29.71,NW,320,0.0,-999.0,80,-99.99,,,-99.99,,2013-04-09 04:03:00,
2013-04-09 00:13:00,35.0,29.0,29.71,NW,320,0.0,-999.0,80,-99.99,,,-99.99,,2013-04-09 04:13:00,
2013-04-09 00:23:00,35.0,29.0,29.69,NW,320,0.0,-999.0,80,-99.99,,,-99.99,,2013-04-09 04:23:00,
2013-04-09 00:32:00,35.0,29.0,29.69,NW,320,0.0,-999.0,80,-99.99,,,-99.99,,2013-04-09 04:32:00,
2013-04-09 00:43:00,35.0,29.0,29.69,NW,320,0.0,-999.0,80,-99.99,,,-99.99,,2013-04-09 04:43:00,
2013-04-09 00:53:00,35.0,29.0,29.69,NW,320,0.0,-999.0,80,-99.99,,,-99.99,,2013-04-09 04:53:00,
2013-04-09 01:02:00,36.0,29.0,29.70,West,268,0.0,-999.0,77,-99.99,,,-99.99,,2013-04-09 05:02:00,
2013-04-09 01:12:00,36.0,29.0,29.70,West,268,0.0,-999.0,77,-99.99,,,-99.99,,2013-04-09 05:12:00,
2013-04-09 01:22:00,37.0,30.0,29.66,West,268,0.0,-999.0,77,-99.99,,,-99.99,,2013-04-09 05:22:00,
2013-04-09 01:32:00,37.0,31.0,29.67,West,268,0.0,-999.0,78,-99.99,,,-99.99,,2013-04-09 05:32:00,
2013-04-09 01:43:00,38.0,33.0,29.65,West,268,0.0,-999.0,82,-99.99,,,-99.99,,2013-04-09 05:43:00,
2013-04-09 01:52:00,38.0,33.0,29.65,West,268,0.0,-999.0,82,-99.99,,,-99.99,,2013-04-09 05:52:00,
2013-04-09 02:02:00,37.0,31.0,29.66,West,268,0.0,-999.0,79,-99.99,,,-99.99,,2013-04-09 06:02:00,
2013-04-09 02:12:00,37.0,33.0,29.62,West,268,0.0,-999.0,85,-99.99,,,-99.99,,2013-04-09 06:12:00,
2013-04-09 02:22:00,37.0,33.0,29.62,West,268,0.0,-999.0,85,-99.99,,,-99.99,,2013-04-09 06:22:00,
2013-04-09 02:32:00,37.0,33.0,29.63,West,268,0.0,-999.0,85,-99.99,,,-99.99,,2013-04-09 06:32:00,
2013-04-09 02:42:00,37.0,33.0,29.63,West,268,0.0,-999.0,85,-99.99,,,-99.99,,2013-04-09 06:42:00,
2013-04-09 02:52:00,37.0,33.0,29.63,West,262,0.0,-999.0,86,-99.99,,,-99.99,,2013-04-09 06:52:00,
2013-04-09 03:02:00,36.0,33.0,29.65,West,262,0.0,-999.0,89,-99.99,,,-99.99,,2013-04-09 07:02:00,
2013-04-09 03:13:00,36.0,33.0,29.65,West,262,0.0,-999.0,89,-99.99,,,-99.99,,2013-04-09 07:13:00,
2013-04-09 03:22:00,36.0,34.0,29.63,West,262,0.0,-999.0,93,-99.99,,,-99.99,,2013-04-09 07:22:00,
2013-04-09 03:32:00,36.0,34.0,29.63,West,262,0.0,-999.0,93,-99.99,,,-99.99,,2013-04-09 07:32:00,
2013-04-09 03:42:00,36.0,34.0,29.63,West,262,0.0,-999.0,93,-99.99,,,-99.99,,2013-04-09 07:42:00,
2013-04-09 03:53:00,37.0,35.0,29.59,NNE,24,0.0,-999.0,94,-99.99,,,-99.99,,2013-04-09 07:53:00,
2013-04-09 04:03:00,36.0,34.0,29.61,NNE,24,0.0,-999.0,94,-99.99,,,-99.99,,2013-04-09 08:03:00,
2013-04-09 04:13:00,36.0,34.0,29.61,NNE,24,0.0,-999.0,94,-99.99,,,-99.99,,2013-04-09 08:13:00,
2013-04-09 04:22:00,36.0,34.0,29.58,North,351,0.0,-999.0,94,-99.99,,,-99.99,,2013-04-09 08:22:00,
2013-04-09 04:32:00,36.0,34.0,29.59,North,351,0.0,-999.0,94,-99.99,,,-99.99,,2013-04-09 08:32:00,
2013-04-09 04:42:00,36.0,34.0,29.59,North,351,0.0,-999.0,94,-99.99,,,-99.99,,2013-04-09 08:42:00,
2013-04-09 04:52:00,36.0,35.0,29.57,North,351,0.0,-999.0,95,-99.99,,,-99.99,,2013-04-09 08:52:00,
2013-04-09 05:02:00,36.0,35.0,29.58,North,351,0.0,-999.0,95,-99.99,,,-99.99,,2013-04-09 09:02:00,
2013-04-09 05:12:00,36.0,35.0,29.58,North,351,0.0,-999.0,95,-99.99,,,-99.99,,2013-04-09 09:12:00,
2013-04-09 05:22:00,36.0,35.0,29.54,North,351,0.0,-999.0,95,-99.99,,,-99.99,,2013-04-09 09:22:00,
2013-04-09 05:33:00,36.0,35.0,29.56,WSW,256,0.0,-999.0,96,-99.99,,,-99.99,,2013-04-09 09:33:00,
2013-04-09 05:43:00,36.0,35.0,29.56,WSW,256,0.0,-999.0,96,-99.99,,,-99.99,,2013-04-09 09:43:00,
2013-04-09 05:53:00,37.0,36.0,29.55,WSW,257,0.0,-999.0,96,-99.99,,,-99.99,,2013-04-09 09:53:00,
2013-04-09 06:03:00,37.0,36.0,29.57,West,280,0.0,-999.0,96,-99.99,,,-99.99,,2013-04-09 10:03:00,
2013-04-09 06:13:00,37.0,36.0,29.57,West,280,0.0,-999.0,96,-99.99,,,-99.99,,2013-04-09 10:13:00,
2013-04-09 06:23:00,37.0,36.0,29.54,West,280,0.0,-999.0,96,-99.99,,,-99.99,,2013-04-09 10:23:00,
2013-04-09 06:33:00,37.0,36.0,29.56,West,280,0.0,-999.0,96,-99.99,,,-99.99,,2013-04-09 10:33:00,
2013-04-09 06:43:00,37.0,36.0,29.56,West,280,0.0,-999.0,96,-99.99,,,-99.99,,2013-04-09 10:43:00,
2013-04-09 06:54:00,38.0,37.0,29.54,West,280,0.0,-999.0,96,-99.99,,,-99.99,,2013-04-09 10:54:00,
2013-04-09 07:02:00,37.0,36.0,29.55,West,280,0.0,-999.0,96,-99.99,,,-99.99,,2013-04-09 11:02:00,
2013-04-09 07:12:00,37.0,36.0,29.55,West,280,0.0,-999.0,96,-99.99,,,-99.99,,2013-04-09 11:12:00,
2013-04-09 07:22:00,38.0,37.0,29.53,West,280,0.0,-999.0,97,-99.99,,,-99.99,,2013-04-09 11:22:00,
2013-04-09 07:32:00,38.0,37.0,29.55,West,280,0.0,-999.0,97,-99.99,,,-99.99,,2013-04-09 11:32:00,
2013-04-09 07:43:00,38.0,37.0,29.55,West,280,0.0,-999.0,97,-99.99,,,-99.99,,2013-04-09 11:43:00,
2013-04-09 07:52:00,39.0,38.0,29.53,West,280,0.0,-999.0,97,-99.99,,,-99.99,,2013-04-09 11:52:00,
2013-04-09 08:02:00,39.0,38.0,29.54,West,280,0.0,-999.0,97,-99.99,,,-99.99,,2013-04-09 12:02:00,
2013-04-09 08:12:00,39.0,38.0,29.54,West,280,0.0,-999.0,97,-99.99,,,-99.99,,2013-04-09 12:12:00,
2013-04-09 08:22:00,39.0,38.0,29.52,West,280,0.0,-999.0,97,-99.99,,,-99.99,,2013-04-09 12:22:00,
2013-04-09 08:32:00,39.0,38.0,29.54,West,280,0.0,-999.0,97,-99.99,,,-99.99,,2013-04-09 12:32:00,
2013-04-09 08:42:00,39.0,38.0,29.54,West,280,0.0,-999.0,97,-99.99,,,-99.99,,2013-04-09 12:42:00,
2013-04-09 08:53:00,39.0,38.0,29.54,West,280,0.0,-999.0,97,-99.99,,,-99.99,,2013-04-09 12:53:00,
2013-04-09 09:03:00,39.0,38.0,29.54,West,280,0.0,-999.0,97,-99.99,,,-99.99,,2013-04-09 13:03:00,
2013-04-09 09:13:00,39.0,38.0,29.54,West,280,0.0,-999.0,97,-99.99,,,-99.99,,2013-04-09 13:13:00,
2013-04-09 09:23:00,40.0,39.0,29.52,West,280,0.0,-999.0,97,-99.99,,,-99.99,,2013-04-09 13:23:00,
2013-04-09 09:33:00,40.0,39.0,29.53,West,280,0.0,-999.0,97,-99.99,,,-99.99,,2013-04-09 13:33:00,
2013-04-09 09:43:00,40.0,39.0,29.53,West,280,0.0,-999.0,97,-99.99,,,-99.99,,2013-04-09 13:43:00,
2013-04-09 09:53:00,43.0,42.0,29.52,West,281,0.0,-999.0,98,-99.99,,,-99.99,,2013-04-09 13:53:00,
2013-04-09 10:03:00,43.0,42.0,29.54,West,260,0.0,-999.0,98,-99.99,,,-99.99,,2013-04-09 14:03:00,
2013-04-09 10:12:00,43.0,42.0,29.54,West,260,0.0,-999.0,98,-99.99,,,-99.99,,2013-04-09 14:12:00,
2013-04-09 10:22:00,44.0,43.0,29.54,NE,38,1.0,-999.0,98,-99.99,,,-99.99,,2013-04-09 14:22:00,
2013-04-09 10:32:00,43.0,42.0,29.57,South,184,0.0,-999.0,98,-99.99,,,-99.99,,2013-04-09 14:32:00,
2013-04-09 10:43:00,43.0,42.0,29.57,South,184,0.0,-999.0,98,-99.99,,,-99.99,,2013-04-09 14:43:00,
2013-04-09 10:52:00,44.0,43.0,29.55,SW,218,0.0,-999.0,97,-99.99,,,-99.99,,2013-04-09 14:52:00,
2013-04-09 11:02:00,44.0,43.0,29.58,SW,218,0.0,-999.0,97,-99.99,,,-99.99,,2013-04-09 15:02:00,
2013-04-09 11:13:00,44.0,43.0,29.58,SW,218,0.0,-999.0,97,-99.99,,,-99.99,,2013-04-09 15:13:00,
2013-04-09 11:23:00,44.0,43.0,29.57,NNE,16,0.0,-999.0,97,-99.99,,,-99.99,,2013-04-09 15:23:00,
2013-04-09 11:33:00,44.0,43.0,29.57,NNE,16,0.0,-999.0,97,-99.99,,,-99.99,,2013-04-09 15:33:00,
2013-04-09 11:43:00,44.0,43.0,29.57,NNE,16,0.0,-999.0,97,-99.99,,,-99.99,,2013-04-09 15:43:00,
2013-04-09 11:54:00,45.0,44.0,29.58,SW,233,0.0,-999.0,97,-99.99,,,-99.99,,2013-04-09 15:54:00,
2013-04-09 12:03:00,44.0,43.0,29.59,SSW,197,0.0,-999.0,97,-99.99,,,-99.99,,2013-04-09 16:03:00,
2013-04-09 12:13:00,44.0,43.0,29.59,SSW,197,0.0,-999.0,97,-99.99,,,-99.99,,2013-04-09 16:13:00,
2013-04-09 12:23:00,45.0,44.0,29.59,South,175,0.0,-999.0,96,-99.99,,,-99.99,,2013-04-09 16:23:00,
2013-04-09 12:33:00,44.0,43.0,29.60,South,177,1.0,-999.0,95,-99.99,,,-99.99,,2013-04-09 16:33:00,
2013-04-09 12:43:00,44.0,43.0,29.60,South,177,1.0,-999.0,95,-99.99,,,-99.99,,2013-04-09 16:43:00,
2013-04-09 12:54:00,45.0,43.0,29.61,WSW,238,3.0,-999.0,94,-99.99,,,-99.99,,2013-04-09 16:54:00,
2013-04-09 13:02:00,45.0,43.0,29.63,WSW,251,3.0,-999.0,91,-99.99,,,-99.99,,2013-04-09 17:02:00,
2013-04-09 13:13:00,45.0,43.0,29.63,WSW,251,3.0,-999.0,91,-99.99,,,-99.99,,2013-04-09 17:13:00,
2013-04-09 13:23:00,46.0,41.0,29.64,ESE,117,4.0,-999.0,83,-99.99,,,-99.99,,2013-04-09 17:23:00,
2013-04-09 13:32:00,45.0,40.0,29.65,SE,139,4.0,-999.0,83,-99.99,,,-99.99,,2013-04-09 17:32:00,
2013-04-09 13:43:00,45.0,40.0,29.65,SE,139,4.0,-999.0,83,-99.99,,,-99.99,,2013-04-09 17:43:00,
2013-04-09 13:54:00,44.0,39.0,29.67,ESE,104,3.0,-999.0,83,-99.99,,,-99.99,,2013-04-09 17:54:00,
2013-04-09 14:02:00,44.0,39.0,29.67,ESE,104,3.0,-999.0,83,-99.99,,,-99.99,,2013-04-09 18:02:00,
2013-04-09 14:13:00,44.0,39.0,29.67,ESE,104,3.0,-999.0,83,-99.99,,,-99.99,,2013-04-09 18:13:00,
2013-04-09 14:23:00,45.0,40.0,29.65,ESE,106,2.0,-999.0,82,-99.99,,,-99.99,,2013-04-09 18:23:00,
2013-04-09 14:33:00,45.0,40.0,29.66,East,90,3.0,-999.0,81,-99.99,,,-99.99,,2013-04-09 18:33:00,
2013-04-09 14:43:00,45.0,40.0,29.66,East,90,3.0,-999.0,81,-99.99,,,-99.99,,2013-04-09 18:43:00,
2013-04-09 14:53:00,45.0,40.0,29.65,SSW,210,1.0,-999.0,81,-99.99,,,-99.99,,2013-04-09 18:53:00,
2013-04-09 15:03:00,45.0,40.0,29.65,SSW,210,1.0,-999.0,81,-99.99,,,-99.99,,2013-04-09 19:03:00,
2013-04-09 15:12:00,45.0,40.0,29.65,SSW,210,1.0,-999.0,81,-99.99,,,-99.99,,2013-04-09 19:12:00,
2013-04-09 15:23:00,45.0,40.0,29.65,SSW,210,1.0,-999.0,81,-99.99,,,-99.99,,2013-04-09 19:23:00,
2013-04-09 15:32:00,45.0,39.0,29.66,ESE,119,2.0,-999.0,80,-99.99,,,-99.99,,2013-04-09 19:32:00,
2013-04-09 15:42:00,45.0,39.0,29.66,ESE,119,2.0,-999.0,80,-99.99,,,-99.99,,2013-04-09 19:42:00,
2013-04-09 15:53:00,45.0,39.0,29.66,SSE,156,2.0,-999.0,78,-99.99,,,-99.99,,2013-04-09 19:53:00,
2013-04-09 16:02:00,44.0,38.0,29.68,SSE,153,2.0,-999.0,79,-99.99,,,-99.99,,2013-04-09 20:02:00,
2013-04-09 16:12:00,44.0,38.0,29.68,SSE,153,2.0,-999.0,79,-99.99,,,-99.99,,2013-04-09 20:12:00,
2013-04-09 16:23:00,45.0,39.0,29.67,SE,124,2.0,-999.0,79,-99.99,,,-99.99,,2013-04-09 20:23:00,
2013-04-09 16:34:00,44.0,38.0,29.68,ENE,78,1.0,-999.0,80,-99.99,,,-99.99,,2013-04-09 20:34:00,
2013-04-09 16:43:00,44.0,38.0,29.68,ENE,78,1.0,-999.0,80,-99.99,,,-99.99,,2013-04-09 20:43:00,
2013-04-09 16:53:00,44.0,39.0,29.67,ENE,60,1.0,-999.0,81,-99.99,,,-99.99,,2013-04-09 20:53:00,
2013-04-09 17:02:00,43.0,38.0,29.68,ENE,60,1.0,-999.0,82,-99.99,,,-99.99,,2013-04-09 21:02:00,
2013-04-09 17:13:00,43.0,38.0,29.68,ENE,60,1.0,-999.0,82,-99.99,,,-99.99,,2013-04-09 21:13:00,
2013-04-09 17:23:00,43.0,38.0,29.68,ENE,60,1.0,-999.0,82,-99.99,,,-99.99,,2013-04-09 21:23:00,
2013-04-09 17:33:00,43.0,38.0,29.67,East,84,1.0,-999.0,83,-99.99,,,-99.99,,2013-04-09 21:33:00,
2013-04-09 17:43:00,43.0,38.0,29.67,East,84,1.0,-999.0,83,-99.99,,,-99.99,,2013-04-09 21:43:00,
2013-04-09 17:53:00,44.0,39.0,29.68,ESE,116,1.0,-999.0,82,-99.99,,,-99.99,,2013-04-09 21:53:00,
2013-04-09 18:03:00,43.0,38.0,29.70,SE,131,1.0,-999.0,81,-99.99,,,-99.99,,2013-04-09 22:03:00,
2013-04-09 18:13:00,43.0,38.0,29.70,SE,131,1.0,-999.0,81,-99.99,,,-99.99,,2013-04-09 22:13:00,
2013-04-09 18:23:00,44.0,39.0,29.69,South,190,0.0,-999.0,81,-99.99,,,-99.99,,2013-04-09 22:23:00,
2013-04-09 18:33:00,44.0,38.0,29.70,WNW,297,1.0,-999.0,80,-99.99,,,-99.99,,2013-04-09 22:33:00,
2013-04-09 18:42:00,44.0,38.0,29.70,WNW,297,1.0,-999.0,80,-99.99,,,-99.99,,2013-04-09 22:42:00,
2013-04-09 18:54:00,44.0,39.0,29.69,West,266,0.0,-999.0,81,-99.99,,,-99.99,,2013-04-09 22:54:00,
2013-04-09 19:03:00,43.0,38.0,29.70,West,268,0.0,-999.0,81,-99.99,,,-99.99,,2013-04-09 23:03:00,
2013-04-09 19:13:00,43.0,38.0,29.70,West,268,0.0,-999.0,81,-99.99,,,-99.99,,2013-04-09 23:13:00,
2013-04-09 19:23:00,42.0,37.0,29.70,NNW,340,0.0,-999.0,82,-99.99,,,-99.99,,2013-04-09 23:23:00,
2013-04-09 19:32:00,42.0,37.0,29.70,NNW,340,0.0,-999.0,82,-99.99,,,-99.99,,2013-04-09 23:32:00,
2013-04-09 19:42:00,42.0,37.0,29.70,NNW,340,0.0,-999.0,82,-99.99,,,-99.99,,2013-04-09 23:42:00,
2013-04-09 19:53:00,42.0,38.0,29.69,West,272,0.0,-999.0,84,-99.99,,,-99.99,,2013-04-09 23:53:00,
2013-04-09 20:03:00,42.0,38.0,29.69,West,272,0.0,-999.0,84,-99.99,,,-99.99,,2013-04-10 00:03:00,
2013-04-09 20:13:00,42.0,38.0,29.69,West,272,0.0,-999.0,84,-99.99,,,-99.99,,2013-04-10 00:13:00,
2013-04-09 20:23:00,39.0,36.0,29.69,West,272,0.0,-999.0,89,-99.99,,,-99.99,,2013-04-10 00:23:00,
2013-04-09 20:33:00,38.0,35.0,29.72,WSW,250,0.0,-999.0,90,-99.99,,,-99.99,,2013-04-10 00:33:00,
2013-04-09 20:43:00,38.0,35.0,29.72,WSW,250,0.0,-999.0,90,-99.99,,,-99.99,,2013-04-10 00:43:00,
2013-04-09 20:53:00,38.0,36.0,29.72,WSW,250,0.0,-999.0,92,-99.99,,,-99.99,,2013-04-10 00:53:00,
2013-04-09 21:02:00,37.0,35.0,29.74,WSW,250,0.0,-999.0,92,-99.99,,,-99.99,,2013-04-10 01:02:00,
2013-04-09 21:12:00,37.0,35.0,29.71,WSW,250,0.0,-999.0,93,-99.99,,,-99.99,,2013-04-10 01:12:00,
2013-04-09 21:23:00,37.0,35.0,29.71,WSW,250,0.0,-999.0,93,-99.99,,,-99.99,,2013-04-10 01:23:00,
2013-04-09 21:32:00,37.0,35.0,29.73,WSW,250,0.0,-999.0,92,-99.99,,,-99.99,,2013-04-10 01:32:00,
2013-04-09 21:43:00,37.0,35.0,29.73,WSW,250,0.0,-999.0,92,-99.99,,,-99.99,,2013-04-10 01:43:00,
2013-04-09 21:53:00,36.0,34.0,29.72,WSW,250,0.0,-999.0,93,-99.99,,,-99.99,,2013-04-10 01:53:00,
2013-04-09 22:02:00,36.0,34.0,29.72,WSW,250,0.0,-999.0,93,-99.99,,,-99.99,,2013-04-10 02:02:00,
2013-04-09 22:13:00,36.0,34.0,29.72,WSW,250,0.0,-999.0,93,-99.99,,,-99.99,,2013-04-10 02:13:00,
2013-04-09 22:22:00,37.0,35.0,29.69,WSW,250,0.0,-999.0,94,-99.99,,,-99.99,,2013-04-10 02:22:00,
2013-04-09 22:32:00,37.0,35.0,29.71,WSW,250,0.0,-999.0,93,-99.99,,,-99.99,,2013-04-10 02:32:00,
2013-04-09 22:43:00,37.0,35.0,29.71,WSW,250,0.0,-999.0,93,-99.99,,,-99.99,,2013-04-10 02:43:00,
2013-04-09 22:53:00,37.0,35.0,29.69,WSW,250,0.0,-999.0,94,-99.99,,,-99.99,,2013-04-10 02:53:00,
2013-04-09 23:03:00,37.0,35.0,29.70,SW,222,0.0,-999.0,94,-99.99,,,-99.99,,2013-04-10 03:03:00,
2013-04-09 23:12:00,37.0,35.0,29.70,SW,222,0.0,-999.0,94,-99.99,,,-99.99,,2013-04-10 03:12:00,
2013-04-09 23:22:00,38.0,36.0,29.67,SW,222,0.0,-999.0,93,-99.99,,,-99.99,,2013-04-10 03:22:00,
2013-04-09 23:33:00,37.0,35.0,29.69,SW,222,0.0,-999.0,94,-99.99,,,-99.99,,2013-04-10 03:33:00,
2013-04-09 23:43:00,37.0,35.0,29.69,SW,222,0.0,-999.0,94,-99.99,,,-99.99,,2013-04-10 03:43:00,
2013-04-09 23:53:00,38.0,37.0,29.65,SW,222,0.0,-999.0,95,-99.99,,,-99.99,,2013-04-10 03:53:00,